Date String (YYYY-MM-DD hh:mm:ss) UTC,Instrument flags,Ambient pressure (hPa),Sample flow (lpm),Bypass flow (lpm),Sample temperature (°C),Ambient temperature (°C),ASC tube jacket temperature (°C),LED temperature (°C),Box temperature (°C),Sample RH (%),Span deviation,Mass concentration (μg/m³),Mass concentration (μg/m³),Mass concentration (μg/m³)
DateTimeUTC,F1_M11,P_M11,Q1_M11,Q2_M11,T1_M11,T2_M11,T3_M11,T4_M11,T5_M11,U1_M11,ZSPAN_M11,X0_M11,X2_M11,X1_M11
2022-04-04 19:00:00,,0816.6,4.99,0.00,25.4,24.8,00.0,34.2,27.3,08.5,0000.0,0013.55,0005.14,0003.53
2022-04-04 19:01:00,,0816.4,5.01,0.00,25.4,24.8,00.0,34.2,27.3,08.7,0000.0,0013.29,0005.07,0003.49
2022-04-04 19:02:00,,0816.4,5.00,0.00,25.5,24.9,00.0,34.2,27.3,08.5,0000.0,0014.33,0005.04,0003.46
2022-04-04 19:03:00,,0816.3,4.99,0.00,25.5,24.9,00.0,34.2,27.3,08.6,0000.0,0014.14,0004.99,0003.44
2022-04-04 19:04:00,,0816.3,5.01,0.00,25.5,24.9,00.0,34.3,27.4,08.6,0000.0,0013.90,0005.00,0003.40
2022-04-04 19:05:00,,0816.3,4.99,0.00,25.5,25.0,00.0,34.3,27.4,08.5,0000.0,0014.02,0004.94,0003.37
2022-04-04 19:06:00,,0816.3,5.00,0.00,25.6,25.0,00.0,34.3,27.5,09.0,0000.0,0014.62,0005.00,0003.36
2022-04-04 19:07:00,,0816.2,5.00,0.00,25.6,25.0,00.0,34.3,27.5,09.0,0000.0,0015.00,0005.04,0003.37
2022-04-04 19:08:00,,0816.2,5.00,0.00,25.6,25.0,00.0,34.4,27.5,08.7,0000.0,0015.45,0005.06,0003.38
2022-04-04 19:09:00,,0816.2,5.01,0.00,25.6,25.0,00.0,34.4,27.5,08.9,0000.0,0016.09,0005.11,0003.38
2022-04-04 19:10:00,,0816.2,5.01,0.00,25.7,25.0,00.0,34.4,27.5,09.0,0000.0,0016.16,0005.13,0003.39
2022-04-04 19:11:00,,0816.2,5.00,0.00,25.7,25.1,00.0,34.4,27.6,08.9,0000.0,0016.01,0005.22,0003.43
2022-04-04 19:12:00,,0816.1,4.99,0.00,25.7,25.1,00.0,34.5,27.6,08.7,0000.0,0015.58,0005.30,0003.45
2022-04-04 19:13:00,,0816.1,5.00,0.00,25.7,25.1,00.0,34.5,27.6,08.7,0000.0,0015.07,0005.38,0003.48
2022-04-04 19:14:00,,0816.2,5.00,0.00,25.8,25.2,00.0,34.5,27.7,08.7,0000.0,0015.78,0005.42,0003.51
2022-04-04 19:15:00,,0816.1,4.99,0.00,25.8,25.2,00.0,34.5,27.7,08.7,0000.0,0015.97,0005.44,0003.53
2022-04-04 19:16:00,,0816.0,5.00,0.00,25.8,25.3,00.0,34.6,27.8,08.9,0000.0,0016.18,0005.45,0003.55
2022-04-04 19:17:00,,0816.0,5.01,0.00,25.9,25.3,00.0,34.6,27.8,09.2,0000.0,0016.58,0005.44,0003.56
2022-04-04 19:18:00,,0815.9,4.99,0.00,25.9,25.3,00.0,34.6,27.8,08.6,0000.0,0016.58,0005.46,0003.56
2022-04-04 19:19:00,,0816.0,4.99,0.00,25.9,25.3,00.0,34.6,27.8,07.8,0000.0,0016.64,0005.48,0003.57
2022-04-04 19:20:00,,0815.9,5.00,0.00,26.0,25.3,00.0,34.7,27.8,07.8,0000.0,0016.47,0005.42,0003.57
2022-04-04 19:21:00,,0815.9,4.99,0.00,26.0,25.3,00.0,34.7,27.9,07.5,0000.0,0016.93,0005.40,0003.56
2022-04-04 19:22:00,,0815.9,5.01,0.00,26.0,25.3,00.0,34.7,27.9,07.6,0000.0,0017.42,0005.39,0003.55
2022-04-04 19:23:00,,0815.9,5.00,0.00,26.0,25.3,00.0,34.7,27.9,07.5,0000.0,0019.01,0005.41,0003.54
2022-04-04 19:24:00,,0815.8,4.99,0.00,26.0,25.3,00.0,34.8,27.9,07.4,0000.0,0018.57,0005.35,0003.52
2022-04-04 19:25:00,,0815.8,5.00,0.00,26.0,25.4,00.0,34.8,27.9,07.6,0000.0,0018.01,0005.31,0003.49
2022-04-04 19:26:00,,0815.8,5.00,0.00,26.1,25.4,00.0,34.8,27.9,07.6,0000.0,0017.82,0005.33,0003.48
2022-04-04 19:27:00,,0815.7,5.00,0.00,26.1,25.5,00.0,34.8,27.9,07.7,0000.0,0017.30,0005.36,0003.48
2022-04-04 19:28:00,,0815.7,4.99,0.00,26.1,25.5,00.0,34.8,28.0,07.7,0000.0,0016.16,0005.33,0003.48
2022-04-04 19:29:00,,0815.7,5.01,0.00,26.2,25.5,00.0,34.9,28.0,07.3,0000.0,0016.26,0005.37,0003.47
2022-04-04 19:30:00,,0815.6,5.01,0.00,26.2,25.5,00.0,34.9,28.0,07.2,0000.0,0015.89,0005.36,0003.46
2022-04-04 19:31:00,,0815.6,5.00,0.00,26.2,25.6,00.0,34.9,28.0,07.2,0000.0,0016.27,0005.35,0003.45
2022-04-04 19:32:00,,0815.6,5.00,0.00,26.2,25.5,00.0,34.9,28.1,07.2,0000.0,0016.47,0005.33,0003.43
2022-04-04 19:33:00,,0815.9,4.99,0.00,26.2,25.5,00.0,35.0,28.1,07.5,0000.0,0017.33,0005.28,0003.40
2022-04-04 19:34:00,,0815.7,5.00,0.00,26.2,25.5,00.0,35.0,28.1,07.4,0000.0,0015.79,0005.22,0003.38
2022-04-04 19:35:00,,0816.0,5.02,0.00,26.2,25.5,00.0,35.0,28.1,07.1,0000.0,0015.20,0005.12,0003.36
2022-04-04 19:36:00,,0816.0,4.98,0.00,26.3,25.6,00.0,35.0,28.1,07.3,0000.0,0014.74,0005.11,0003.36
2022-04-04 19:37:00,,0816.0,4.99,0.00,26.3,25.6,00.0,35.0,28.1,07.5,0000.0,0014.61,0005.09,0003.34
2022-04-04 19:38:00,,0816.0,5.01,0.00,26.3,25.6,00.0,35.1,28.1,06.5,0000.0,0014.65,0005.00,0003.29
2022-04-04 19:39:00,,0815.8,4.99,0.00,26.3,25.6,00.0,35.1,28.2,05.1,0000.0,0015.07,0004.90,0003.21
2022-04-04 19:40:00,,0815.3,4.99,0.00,26.3,25.7,00.0,35.1,28.2,05.2,0000.0,0014.69,0004.77,0003.12
2022-04-04 19:41:00,,0815.3,5.00,0.00,26.4,25.7,00.0,35.1,28.2,04.7,0000.0,0014.59,0004.71,0002.99
2022-04-04 19:42:00,,0815.3,5.01,0.00,26.4,25.7,00.0,35.1,28.3,05.8,0000.0,0013.58,0004.63,0002.89
2022-04-04 19:43:00,,0815.4,4.99,0.00,26.4,25.8,00.0,35.2,28.3,06.5,0000.0,0012.60,0004.57,0002.84
2022-04-04 19:44:00,,0815.3,4.99,0.00,26.4,25.8,00.0,35.2,28.3,06.5,0000.0,0011.54,0004.57,0002.80
2022-04-04 19:45:00,,0815.3,5.00,0.00,26.5,25.8,00.0,35.2,28.3,06.5,0000.0,0011.52,0004.50,0002.74
2022-04-04 19:46:00,,0815.2,5.00,0.00,26.5,25.8,00.0,35.2,28.4,05.7,0000.0,0012.35,0004.51,0002.69
2022-04-04 19:47:00,,0815.3,5.00,0.00,26.5,25.8,00.0,35.3,28.4,05.0,0000.0,0012.36,0004.40,0002.54
2022-04-04 19:48:00,,0815.2,5.01,0.00,26.5,25.8,00.0,35.3,28.4,04.6,0000.0,0012.18,0004.27,0002.39
2022-04-04 19:49:00,,0815.1,4.99,0.00,26.6,25.8,00.0,35.3,28.4,04.4,0000.0,0011.95,0004.23,0002.30
2022-04-04 19:50:00,,0814.9,5.00,0.00,26.6,25.8,00.0,35.3,28.4,04.4,0000.0,0011.33,0004.21,0002.27
2022-04-04 19:51:00,,0815.0,5.01,0.00,26.6,25.8,00.0,35.3,28.4,04.3,0000.0,0011.41,0004.20,0002.27
2022-04-04 19:52:00,,0815.0,5.00,0.00,26.6,25.8,00.0,35.3,28.5,04.2,0000.0,0011.39,0004.13,0002.26
2022-04-04 19:53:00,,0815.1,4.99,0.00,26.6,25.9,00.0,35.4,28.5,04.1,0000.0,0011.64,0004.09,0002.24
2022-04-04 19:54:00,,0815.2,5.01,0.00,26.6,25.9,00.0,35.4,28.5,04.3,0000.0,0012.86,0004.06,0002.16
2022-04-04 19:55:00,,0815.1,4.99,0.00,26.6,25.9,00.0,35.4,28.5,04.1,0000.0,0012.70,0004.00,0002.04
2022-04-04 19:56:00,,0815.0,5.01,0.00,26.7,25.9,00.0,35.4,28.5,04.4,0000.0,0012.46,0003.96,0001.96
2022-04-04 19:57:00,,0815.0,4.99,0.00,26.7,25.9,00.0,35.4,28.5,04.4,0000.0,0011.99,0003.90,0001.88
2022-04-04 19:58:00,,0815.0,5.01,0.00,26.7,25.9,00.0,35.5,28.5,04.3,0000.0,0012.06,0003.92,0001.89
2022-04-04 19:59:00,,0815.1,4.99,0.00,26.7,25.9,00.0,35.5,28.5,04.1,0000.0,0012.01,0003.93,0001.90
